Location: McFarlands Corners
(41.4117°N, 81.3382°W)
Time: 05:03:46
(UTC+00:00)

Transit 4A - Pass Details

Date: 17 February 2026
Orbit: 864 x 977 km, 66.8° (Epoch: 5 March)

Event Time Altitude Azimuth Distance (km) Brightness Sun altitude
Rises 08:54:08 0° 199° (SSW) 3,437 - -38.4°
Reaches altitude 10° 08:56:35 10° 197° (SSW) 2,511 - -38.0°
Maximum altitude 09:02:20 67° 116° (ESE) 955 - -36.9°
Exits shadow 09:04:45 36° 45° (NE) 1,376 9.1 -36.5°
Drops below altitude 10° 09:08:16 10° 35° (NE) 2,589 10.7 -35.9°
Sets 09:10:50 0° 33° (NNE) 3,551 11.6 -35.4°
